{"data":{"norad_id":57734,"intl_designator":"2023-131C","name":"STARLINK-30365","alt_names":[],"object_type":"PAYLOAD","status":"ACTIVE","operator":null,"country":"US","launch_date":"2023-09-01","launch_site_code":"AFETR","launch_vehicle":null,"mission":null,"orbit_class":"UNKNOWN","rcs_meters":null,"size_class":null,"mass_kg":null,"dimensions":null,"purposes":["comms"],"wikipedia_slug":null,"has_3d_model":false,"image_url":null,"decayed_at":null,"tle_current":{"epoch":"2026-05-25T04:20:59.572320Z","epoch_age_seconds":73445,"freshness":"FRESH","line1":"1 57734U 23131C   26145.18124505  .00000881  00000+0  41544-4 0  9998","line2":"2 57734  43.0033 100.5422 0000795 278.0507  82.0255 15.27580298151618","mean_motion":15.27580298,"eccentricity":7.95e-5,"inclination_deg":43.0033,"raan_deg":100.5422,"arg_perigee_deg":278.0507,"mean_anomaly_deg":82.0255,"bstar":4.1544e-5,"rev_number":15161,"period_min":94.266730324117,"perigee_km":482.5027394969,"apogee_km":483.59366794429,"semimajor_km":6861.1852037206,"source":"CELESTRAK","updated_at":"2026-05-25T13:38:18.397430Z"}}}